Kansas Department of Transportation
RWIS(Road and Runway Information System) Map and Weather Data





Station
Surface
Air
Wind
Site IDSensor TypeLocationTemperature (°F)Temperature (°F)Humidity (%)Speed (mi/h)Gusts (mi/h)DirectionTime
123002AtmosphericBonner Springs 436111WNov 15 2018 6:55PM
123002ApproachBonner Springs43     Nov 15 2018 6:55PM
123002DeckBonner Springs43     Nov 15 2018 6:55PM
123014AtmosphericBull Creek 415714SSWNov 15 2018 6:55PM
123014DeckBull Creek41     Nov 15 2018 6:55PM
123014DepartureBull Creek43     Nov 15 2018 6:55PM
123015AtmosphericLeavenworth 455713WNov 15 2018 6:55PM
123015DeckLeavenworthUnavailable     Nov 15 2018 6:55PM
123015DepartureLeavenworth37     Nov 15 2018 6:55PM
123020AtmosphericMayetta 464645WSWNov 15 2018 6:55PM
123020RoadwayMayettaUnavailable     Nov 15 2018 6:55PM
123020DeckMayetta39     Nov 15 2018 6:55PM
505000AtmosphericKTA 1 504911NENov 15 2018 6:50PM
505000ApproachKTA 150     Nov 15 2018 6:50PM
505000DeckKTA 152     Nov 15 2018 6:50PM
505001AtmosphericKTA 2 437601NNov 15 2018 6:50PM
505001ApproachKTA 250     Nov 15 2018 6:50PM
505001DeckKTA 250     Nov 15 2018 6:50PM
505002AtmosphericKTA 3 438601WNWNov 15 2018 6:50PM
505002ApproachKTA 346     Nov 15 2018 6:50PM
505002DeckKTA 348     Nov 15 2018 6:50PM
505003AtmosphericKTA 4 464601NNov 15 2018 6:50PM
505003ApproachKTA 446     Nov 15 2018 6:50PM
505003DeckKTA 445     Nov 15 2018 6:50PM
505004AtmosphericKTA 5 439944NWNov 15 2018 6:50PM
505004RoadwayKTA 5Unavailable     Nov 15 2018 6:50PM
505004RoadwayKTA 5Unavailable     Nov 15 2018 6:50PM
505005AtmosphericKTA 6 436212NWNov 15 2018 6:50PM
505005Approach KTA 645     Nov 15 2018 6:50PM
505005DeckKTA 645     Nov 15 2018 6:50PM
505007AtmosphericKTA 8 465544SWNov 15 2018 6:52PM
505007ApproachKTA 845     Nov 15 2018 6:52PM
505007DeckKTA 845     Nov 15 2018 6:52PM
505008AtmosphericKTA 9 417201NWNov 15 2018 6:52PM
505008ApproachKTA 943     Nov 15 2018 6:52PM
505008DeckKTA 943     Nov 15 2018 6:52PM
505009AtmosphericKTA 10 395401WNov 15 2018 6:52PM
505009ApproachKTA 1041     Nov 15 2018 6:52PM
505009DeckKTA 1043     Nov 15 2018 6:52PM
505010AtmosphericWebb 484000ESENov 15 2018 6:55PM
505010DeckWebb54     Nov 15 2018 6:55PM
505010NullWebb50     Nov 15 2018 6:55PM
505014AtmosphericI-135 506313ENENov 15 2018 7:00PM
505014ApproachI-135      Nov 15 2018 7:00PM
505014DeckI-135      Nov 15 2018 7:00PM
540000AtmosphericBlue Rapids 417100SWNov 15 2018 6:55PM
540000DeckBlue Rapids45     Nov 15 2018 6:55PM
540000DepartureBlue Rapids43     Nov 15 2018 6:55PM
540001AtmosphericSabetha 396823NWNov 15 2018 6:55PM
540001ApproachSabetha39     Nov 15 2018 6:55PM
540001DeckSabetha41     Nov 15 2018 6:55PM
540002AtmosphericWestgate 455122WSWNov 15 2018 6:55PM
540002DeckWestgate46     Nov 15 2018 6:55PM
540002DepartureWestgateUnavailable     Nov 15 2018 6:55PM
540003AtmosphericEmporia 486012NNENov 15 2018 6:55PM
540003ApproachEmporia45     Nov 15 2018 6:55PM
540003DeckEmporia46     Nov 15 2018 6:55PM
540005AtmosphericLawrence 416413NNov 15 2018 6:55PM
540005ApproachLawrenceUnavailable     Nov 15 2018 6:55PM
540005DeckLawrenceUnavailable     Nov 15 2018 6:55PM
540006AtmosphericTroy 466034SSENov 15 2018 4:50PM
540006DeckTroy      Nov 15 2018 5:00PM
540006DepartureTroy      Nov 15 2018 5:00PM
540007AtmosphericManhattan 417211SSWNov 15 2018 6:55PM
540007DepartureManhattan45     Nov 15 2018 6:55PM
540007DeckManhattan45     Nov 15 2018 6:55PM
541001AtmosphericSyracuse 467046NNov 15 2018 6:55PM
541001Out of Service for WinterSyracuse46     Nov 15 2018 6:55PM
541001DeckSyracuse45     Nov 15 2018 6:55PM
541002AtmosphericLiberal 544769NNWNov 15 2018 6:55PM
541002ApproachLiberalUnavailable     Nov 15 2018 6:55PM
541002DeckLiberalUnavailable     Nov 15 2018 6:55PM
541003AtmosphericFord 485124NNov 15 2018 6:55PM
541003DeckFord54     Nov 15 2018 6:55PM
541003DepartureFord52     Nov 15 2018 6:55PM
541004AtmosphericScott 503700NNov 15 2018 6:55PM
541004DepartureScottUnavailable     Nov 15 2018 6:55PM
541005AtmosphericNess 485244NNov 15 2018 6:55PM
541005DeckNess50     Nov 15 2018 6:55PM
541005DepartureNess48     Nov 15 2018 6:55PM
541007AtmosphericGarden City 434811NNov 15 2018 6:22PM
541007ApproachGarden City43     Nov 15 2018 6:22PM
543000AtmosphericJunction City 456311NNENov 15 2018 6:55PM
543000ApproachJunction City46     Nov 15 2018 6:55PM
543000DeckJunction City46     Nov 15 2018 6:55PM
543002AtmosphericMcPherson 486424NNov 15 2018 6:55PM
543002ApproachMcPherson46     Nov 15 2018 6:55PM
543002DeckMcPherson48     Nov 15 2018 6:55PM
543003AtmosphericSalina 503523NNENov 15 2018 6:55PM
543003DepartureSalina46     Nov 15 2018 6:55PM
543003RoadwaySalinaUnavailable     Nov 15 2018 6:55PM
543004AtmosphericConcordia 485311NWNov 15 2018 6:55PM
543004ApproachConcordiaUnavailable     Nov 15 2018 6:55PM
543004DeckConcordia48     Nov 15 2018 6:55PM
543005AtmosphericPeabody 465844NNov 15 2018 6:55PM
543005ApproachPeabody46     Nov 15 2018 6:55PM
543005DeckPeabodyUnavailable     Nov 15 2018 6:55PM
560000AtmosphericEdson 542923NNov 15 2018 6:55PM
560000RoadwayEdson46     Nov 15 2018 6:55PM
560000RoadwayEdson46     Nov 15 2018 6:55PM
560001AtmosphericOakley 484622NNWNov 15 2018 6:55PM
560001ApproachOakley46     Nov 15 2018 6:55PM
560001DeckOakley48     Nov 15 2018 6:55PM
560002AtmosphericAtwood 415612SWNov 15 2018 6:55PM
560002ApproachAtwood46     Nov 15 2018 6:55PM
560002DeckAtwood46     Nov 15 2018 6:55PM
560003AtmosphericJennings 415311SWNov 15 2018 6:55PM
560003ApproachJennings46     Nov 15 2018 6:55PM
560003DeckJennings45     Nov 15 2018 6:55PM
560003DeckJennings45     Nov 15 2018 6:55PM
560004AtmosphericWakeeney 504224NNov 15 2018 6:55PM
560004ApproachWakeeney50     Nov 15 2018 6:55PM
560004DeckWakeeney50     Nov 15 2018 6:55PM
560005AtmosphericWalker 504944NNWNov 15 2018 6:55PM
560005ApproachWalkerUnavailable     Nov 15 2018 6:55PM
560005DeckWalker61     Nov 15 2018 6:55PM
560006AtmosphericBow Creek(Stockton) 463201WNWNov 15 2018 6:55PM
560006ApproachBow Creek(Stockton)46     Nov 15 2018 6:55PM
560006DeckBow Creek(Stockton)45     Nov 15 2018 6:55PM
560007AtmosphericLebanon 4634710NNWNov 15 2018 6:55PM
560007ApproachLebanon46     Nov 15 2018 6:55PM
560007DeckLebanon48     Nov 15 2018 6:55PM
560008AtmosphericWallace 393512WSWNov 15 2018 6:55PM
560008ApproachWallace46     Nov 15 2018 6:55PM
560008DeckWallace45     Nov 15 2018 6:55PM
572000AtmosphericGreat Bend 486022NWNov 15 2018 6:55PM
572000ApproachGreat Bend48     Nov 15 2018 6:55PM
572000DeckGreat Bend50     Nov 15 2018 6:55PM
572001AtmosphericPratt 481301NNENov 15 2018 6:55PM
572001ApproachPratt50     Nov 15 2018 6:55PM
572001DeckPratt50     Nov 15 2018 6:55PM
572002AtmosphericAnthony 506524NNov 15 2018 6:55PM
572002ApproachAnthony48     Nov 15 2018 6:55PM
572002DeckAnthony100     Nov 15 2018 6:55PM
573000AtmosphericEureka 397912NWNov 15 2018 6:55PM
573000DeckEureka39     Nov 15 2018 6:55PM
573000DepartureEureka39     Nov 15 2018 6:55PM
573001AtmosphericGarnett 396511NNov 15 2018 6:55PM
573001ApproachGarnett39     Nov 15 2018 6:55PM
573001DeckGarnett41     Nov 15 2018 6:55PM
573002AtmosphericCaney 413900WNov 15 2018 6:55PM
573002RoadwayCaney46     Nov 15 2018 6:55PM
573003AtmosphericChetopa 435801NNov 15 2018 6:55PM
573003DeckChetopa39     Nov 15 2018 6:55PM
573003DeckChetopa39     Nov 15 2018 6:55PM
573003DepartureChetopa45     Nov 15 2018 6:55PM
573004AtmosphericChanute 465634SSENov 15 2018 6:55PM
573004ApproachChanute43     Nov 15 2018 6:55PM
573004DeckChanute43     Nov 15 2018 6:55PM